Hourly Data Report for November 21, 2016

All times are specified in Local Standard Time (LST). Add 1 hour to adjust for Daylight Saving Time where and when it is observed.

KITCHENER/WATERLOO
ONTARIO

43°27'39.000" N
80°22'43.000" W
321.60 m
6144239
71368
YKF

Download Data

Hourly Data (November 2016)
Hourly Data Report for November 21, 2016
Temp Definition
°C
Dew Point Temp Definition
°C
Rel Hum Definition
%
Wind Dir Definition
10's deg

Wind Spd Definition
km/h
Visibility Definition
km
Stn Press Definition
kPa
Hmdx Definition


Wind Chill Definition


Weather Definition


TIME
00:00 Legend Double Dagger -2.7 -7.2 71 31 28 16.1 97.40   -10 LegendNANA
01:00 Legend Double Dagger -2.9 -7.5 71 32 28 16.1 97.39   -10 Snow
02:00 Legend Double Dagger -2.8 -7.8 69 31 24 16.1 97.36   -9 LegendNANA
03:00 Legend Double Dagger -2.7 -7.7 69 32 35 16.1 97.38   -11 Snow
04:00 Legend Double Dagger -2.6 -7.8 67 32 39 16.1 97.38   -11 Snow
05:00 Legend Double Dagger -2.7 -7.5 70 32 37 16.1 97.41   -11 Snow
06:00 Legend Double Dagger -2.7 -7.7 69 31 37 16.1 97.45   -11 Snow
07:00 Legend Double Dagger -2.5 -7.8 67 31 45 16.1 97.48   -11 LegendNANA
08:00 Legend Double Dagger -2.3 -7.1 70 30 26 16.1 97.50   -9 LegendNANA
09:00 Legend Double Dagger -2.0 -7.1 68 31 35 16.1 97.52   -10 LegendNANA
10:00 Legend Double Dagger -1.4 -7.0 66 30 34 16.1 97.56   -9 LegendNANA
11:00 Legend Double Dagger -1.1 -7.5 62 29 41 16.1 97.57   -9 LegendNANA
12:00 Legend Double Dagger -0.4 -6.8 62 30 41 16.1 97.54   -8 LegendNANA
13:00 Legend Double Dagger -0.1 -6.2 64 31 34 16.1 97.50   -7 LegendNANA
14:00 Legend Double Dagger -0.7 -7.2 61 30 43 16.1 97.54   -9 LegendNANA
15:00 Legend Double Dagger -1.0 -6.9 64 31 35 16.1 97.60   -8 LegendNANA
16:00 Legend Double Dagger -1.2 -6.6 67 30 34 16.1 97.66   -8 LegendNANA
17:00 Legend Double Dagger -1.2 -6.6 67 30 35 16.1 97.69   -9 LegendNANA
18:00 Legend Double Dagger -1.2 -6.1 70 31 24 16.1 97.75   -7 LegendNANA
19:00 Legend Double Dagger -0.8 -6.8 64 31 43 16.1 97.76   -9 LegendNANA
20:00 Legend Double Dagger -0.7 -5.9 68 30 30 16.1 97.82   -7 LegendNANA
21:00 Legend Double Dagger -0.3 -5.8 67 30 34 16.1 97.83   -7 LegendNANA
22:00 Legend Double Dagger -0.3 -5.9 66 30 28 16.1 97.88   -7 LegendNANA
23:00 Legend Double Dagger -0.8 -6.2 67 31 28 16.1 97.92   -7 LegendNANA

Notes on Data Quality.

Legend

  • E = Estimated
  • M = Missing
  • NA = Not Available
  • ‡ = Partner data that is not subject to review by the National Climate Archives
Date modified: